Date,TemperatureHighF,TemperatureAvgF,TemperatureLowF,DewpointHighF,DewpointAvgF,DewpointLowF,HumidityHigh,HumidityAvg,HumidityLow,PressureMaxIn,PressureMinIn,WindSpeedMaxMPH,WindSpeedAvgMPH,GustSpeedMaxMPH,PrecipitationSumIn
2013-4-1,55,51,49,52,49,45,100,93,68,30.20,30.07,10,6,0,0.00
2013-4-2,57,52,50,51,49,45,96,89,65,30.22,30.10,25,16,0,0.00
2013-4-3,58,55,52,54,51,49,97,87,72,30.11,30.03,25,11,0,0.00
2013-4-4,65,60,56,54,52,48,92,75,54,30.13,30.04,14,6,0,0.00
2013-4-5,62,60,59,56,54,53,88,82,72,30.11,30.08,10,4,0,0.00
2013-4-6,64,60,58,54,51,45,88,74,53,30.10,30.00,15,9,0,0.00
2013-4-7,59,58,55,53,52,49,88,80,72,30.01,29.88,41,18,0,0.00
2013-4-8,61,58,54,50,36,1,82,51,9,29.88,29.71,47,29,0,0.00
2013-4-9,63,59,56,49,30,-100,79,41,5,29.99,29.83,22,14,0,0.00
2013-4-10,65,58,55,53,39,-100,90,62,48,30.13,30.00,18,10,0,0.00
2013-4-11,62,57,55,53,49,43,92,77,48,30.05,29.93,31,19,0,0.00
2013-4-12,56,55,54,45,42,40,71,62,56,30.00,29.93,36,27,0,0.00
2013-4-13,57,56,54,51,47,40,83,72,58,30.03,29.96,30,23,0,0.00
2013-4-14,55,54,52,48,44,40,85,70,59,29.99,29.87,33,22,0,0.00
2013-4-15,55,53,52,47,44,27,82,72,33,29.98,29.85,45,22,0,0.00
2013-4-16,53,51,48,40,22,-100,67,47,13,30.09,29.88,45,32,0,0.00
2013-4-17,55,53,51,46,43,40,78,68,58,30.23,30.09,32,26,0,0.00
2013-4-20,55,53,52,49,48,47,87,83,75,30.07,29.99,37,29,0,0.00
2013-4-21,55,54,53,50,47,46,86,78,70,30.11,30.02,31,21,0,0.00
2013-4-22,56,54,52,51,49,47,89,82,69,30.06,29.92,21,10,0,0.00
2013-4-23,57,52,50,53,49,47,98,88,71,30.00,29.92,9,6,0,0.00
2013-4-24,56,53,49,51,49,47,94,86,74,29.98,29.91,17,10,0,0.00
2013-4-25,59,56,54,53,52,43,95,86,65,30.17,29.98,13,7,0,0.00
2013-4-26,56,53,51,54,49,44,100,88,64,30.28,30.18,26,12,0,0.00
2013-4-27,51,50,48,49,47,44,94,89,79,30.26,30.16,31,21,0,0.00
2013-4-28,54,53,51,49,47,45,92,81,74,30.18,29.97,36,29,0,0.00
2013-4-29,56,54,51,47,44,43,79,69,64,29.98,29.85,41,27,0,0.00
2013-4-30,67,52,49,43,42,36,78,69,31,29.89,29.84,30,21,0,0.00